| time (UTC) | temp F | wind direction | speed knots | gust knots | rain 1hr in | rain 24hr in | rain mn in | humidity % | barometer mb |
| 20260506191538 | 42 | 68 | 1.7 | 5.2 | 0.00 | 0.00 | 0.00 | 67 | 1015.0 |
| 20260506191037 | 42 | 65 | 1.7 | 5.2 | 0.00 | 0.00 | 0.00 | 66 | 1014.9 |
| 20260506190538 | 42 | 34 | 1.7 | 5.2 | 0.00 | 0.00 | 0.00 | 66 | 1014.9 |
| 20260506190039 | 42 | 28 | 1.7 | 5.2 | 0.00 | 0.00 | 0.00 | 66 | 1014.9 |
| 20260506185538 | 43 | 26 | 2.6 | 5.2 | 0.00 | 0.00 | 0.00 | 66 | 1014.8 |
| 20260506184540 | 43 | 19 | 2.6 | 8.7 | 0.00 | 0.00 | 0.00 | 69 | 1014.8 |
| 20260506184038 | 43 | 347 | 4.3 | 8.7 | 0.00 | 0.00 | 0.00 | 69 | 1014.8 |
| 20260506183538 | 43 | 13 | 2.6 | 7.8 | 0.00 | 0.00 | 0.00 | 69 | 1014.8 |
| 20260506183045 | 43 | 11 | 1.7 | 8.7 | 0.00 | 0.00 | 0.00 | 68 | 1014.7 |
| 20260506182537 | 43 | 24 | 3.5 | 8.7 | 0.00 | 0.00 | 0.00 | 68 | 1014.7 |
| 20260506182039 | 44 | 13 | 5.2 | 8.7 | 0.00 | 0.00 | 0.00 | 69 | 1014.7 |
| 20260506181537 | 44 | 9 | 3.5 | 7.8 | 0.00 | 0.00 | 0.00 | 65 | 1014.6 |
| 20260506181037 | 44 | 350 | 3.5 | 7.8 | 0.00 | 0.00 | 0.00 | 65 | 1014.6 |
| 20260506180539 | 44 | 360 | 3.5 | 7.0 | 0.00 | 0.00 | 0.00 | 64 | 1014.5 |
| 20260506180036 | 44 | 360 | 1.7 | 7.0 | 0.00 | 0.00 | 0.00 | 63 | 1014.5 |
| 20260506175539 | 44 | 360 | 3.5 | 7.0 | 0.00 | 0.00 | 0.00 | 62 | 1014.5 |
| 20260506174536 | 45 | 355 | 2.6 | 5.2 | 0.00 | 0.00 | 0.00 | 62 | 1014.5 |
| 20260506174036 | 45 | 360 | 1.7 | 5.2 | 0.00 | 0.00 | 0.00 | 60 | 1014.5 |
| 20260506173537 | 45 | 355 | 2.6 | 7.8 | 0.00 | 0.00 | 0.00 | 62 | 1014.5 |
| 20260506173036 | 45 | 360 | 2.6 | 7.8 | 0.00 | 0.00 | 0.00 | 64 | 1014.5 |
| 20260506172535 | 44 | 349 | 3.5 | 7.8 | 0.00 | 0.00 | 0.00 | 64 | 1014.4 |
| 20260506172035 | 44 | 355 | 5.2 | 7.8 | 0.00 | 0.00 | 0.00 | 65 | 1014.5 |
| 20260506171543 | 44 | 348 | 3.5 | 7.0 | 0.00 | 0.00 | 0.00 | 65 | 1014.5 |
| 20260506171035 | 44 | 323 | 3.5 | 7.8 | 0.00 | 0.00 | 0.00 | 64 | 1014.4 |
| 20260506170536 | 44 | 5 | 3.5 | 7.8 | 0.00 | 0.00 | 0.00 | 62 | 1014.4 |
| 20260506170042 | 44 | 350 | 4.3 | 8.7 | 0.00 | 0.00 | 0.00 | 62 | 1014.4 |
| 20260506165538 | 45 | 339 | 4.3 | 8.7 | 0.00 | 0.00 | 0.00 | 64 | 1014.4 |
| 20260506164544 | 45 | 5 | 3.5 | 7.0 | 0.00 | 0.00 | 0.00 | 62 | 1014.3 |
| 20260506164034 | 46 | 360 | 2.6 | 7.8 | 0.00 | 0.00 | 0.00 | 59 | 1014.4 |
| 20260506163532 | 47 | 355 | 4.3 | 7.8 | 0.00 | 0.00 | 0.00 | 59 | 1014.3 |
| 20260506163033 | 47 | 5 | 3.5 | 7.0 | 0.00 | 0.00 | 0.00 | 56 | 1014.3 |
| 20260506162534 | 47 | 29 | 1.7 | 7.0 | 0.00 | 0.00 | 0.00 | 59 | 1014.3 |
| 20260506162032 | 46 | 9 | 2.6 | 7.0 | 0.00 | 0.00 | 0.00 | 59 | 1014.3 |
| 20260506161539 | 45 | 40 | 2.6 | 5.2 | 0.00 | 0.00 | 0.00 | 58 | 1014.3 |
| 20260506161032 | 45 | 17 | 1.7 | 5.2 | 0.00 | 0.00 | 0.00 | 59 | 1014.3 |
| 20260506160534 | 45 | 10 | 1.7 | 7.8 | 0.00 | 0.01 | 0.00 | 60 | 1014.2 |
| 20260506160042 | 46 | 13 | 1.7 | 7.8 | 0.00 | 0.01 | 0.00 | 60 | 1014.2 |
| 20260506155532 | 47 | 23 | 2.6 | 7.8 | 0.00 | 0.01 | 0.00 | 60 | 1014.3 |
| 20260506154533 | 48 | 31 | 2.6 | 7.8 | 0.00 | 0.01 | 0.00 | 60 | 1014.4 |
| 20260506154033 | 48 | 23 | 2.6 | 7.8 | 0.00 | 0.01 | 0.00 | 59 | 1014.3 |
| 20260506153533 | 48 | 30 | 2.6 | 5.2 | 0.00 | 0.01 | 0.00 | 57 | 1014.3 |
| 20260506153032 | 48 | 5 | 0.9 | 3.5 | 0.00 | 0.01 | 0.00 | 55 | 1014.3 |
| 20260506152531 | 48 | 11 | 1.7 | 5.2 | 0.00 | 0.01 | 0.00 | 57 | 1014.3 |
| 20260506152031 | 48 | 19 | 1.7 | 5.2 | 0.00 | 0.01 | 0.00 | 57 | 1014.3 |
| 20260506151536 | 47 | 337 | 0.9 | 4.3 | 0.00 | 0.01 | 0.00 | 58 | 1014.3 |
| 20260506151030 | 48 | 23 | 2.6 | 4.3 | 0.00 | 0.01 | 0.00 | 61 | 1014.4 |
| 20260506150530 | 48 | 355 | 0.9 | 4.3 | 0.00 | 0.01 | 0.00 | 58 | 1014.4 |
| 20260506150032 | 47 | 5 | 1.7 | 4.3 | 0.00 | 0.01 | 0.00 | 60 | 1014.4 |
| 20260506145528 | 47 | 355 | 1.7 | 7.8 | 0.00 | 0.01 | 0.00 | 63 | 1014.4 |
| 20260506144529 | 46 | 360 | 0.9 | 7.8 | 0.00 | 0.01 | 0.00 | 62 | 1014.5 |
| 20260506144038 | 45 | 38 | 0.9 | 7.8 | 0.00 | 0.01 | 0.00 | 62 | 1014.5 |
| 20260506143528 | 45 | 37 | 0.0 | 4.3 | 0.00 | 0.01 | 0.00 | 58 | 1014.5 |
| 20260506143041 | 46 | 360 | 0.9 | 5.2 | 0.00 | 0.01 | 0.00 | 60 | 1014.6 |
| 20260506142528 | 45 | 55 | 1.7 | 5.2 | 0.00 | 0.01 | 0.00 | 59 | 1014.6 |
| 20260506142028 | 46 | 36 | 1.7 | 5.2 | 0.00 | 0.01 | 0.00 | 61 | 1014.6 |
| 20260506141527 | 46 | 5 | 0.9 | 4.3 | 0.00 | 0.01 | 0.00 | 57 | 1014.6 |
| 20260506141029 | 46 | 88 | 0.9 | 4.3 | 0.00 | 0.01 | 0.00 | 57 | 1014.5 |
| 20260506140527 | 46 | 173 | 0.0 | 4.3 | 0.00 | 0.01 | 0.00 | 58 | 1014.4 |
| 20260506140033 | 46 | 196 | 1.7 | 5.2 | 0.00 | 0.01 | 0.00 | 59 | 1014.3 |
| 20260506135528 | 46 | 193 | 1.7 | 6.1 | 0.00 | 0.01 | 0.00 | 57 | 1014.4 |
| 20260506134527 | 47 | 204 | 4.3 | 6.1 | 0.00 | 0.01 | 0.00 | 61 | 1014.4 |
| 20260506134026 | 47 | 221 | 1.7 | 5.2 | 0.00 | 0.01 | 0.00 | 62 | 1014.4 |
| 20260506133526 | 46 | 211 | 1.7 | 5.2 | 0.00 | 0.01 | 0.00 | 61 | 1014.5 |
| 20260506133026 | 47 | 225 | 3.5 | 6.1 | 0.00 | 0.01 | 0.00 | 62 | 1014.5 |
| 20260506132524 | 46 | 197 | 1.7 | 4.3 | 0.00 | 0.01 | 0.00 | 65 | 1014.4 |
| 20260506132024 | 46 | 202 | 2.6 | 4.3 | 0.00 | 0.01 | 0.00 | 63 | 1014.6 |
| 20260506131526 | 47 | 226 | 1.7 | 6.1 | 0.00 | 0.01 | 0.00 | 66 | 1014.6 |
| 20260506131022 | 46 | 188 | 2.6 | 6.1 | 0.00 | 0.01 | 0.00 | 68 | 1014.6 |
| 20260506130523 | 46 | 195 | 3.5 | 6.1 | 0.00 | 0.01 | 0.00 | 67 | 1014.5 |
| 20260506130021 | 46 | 232 | 2.6 | 5.2 | 0.00 | 0.01 | 0.00 | 67 | 1014.5 |
| 20260506125519 | 46 | 208 | 3.5 | 5.2 | 0.00 | 0.01 | 0.00 | 68 | 1014.5 |
| 20260506124519 | 45 | 204 | 3.5 | 6.1 | 0.00 | 0.01 | 0.00 | 70 | 1014.5 |
| 20260506124018 | 45 | 229 | 4.3 | 6.1 | 0.00 | 0.01 | 0.00 | 71 | 1014.4 |
| 20260506123518 | 45 | 227 | 2.6 | 5.2 | 0.00 | 0.01 | 0.00 | 71 | 1014.5 |
| 20260506123018 | 45 | 229 | 2.6 | 4.3 | 0.00 | 0.01 | 0.00 | 72 | 1014.5 |
| 20260506122517 | 45 | 229 | 2.6 | 4.3 | 0.00 | 0.01 | 0.00 | 70 | 1014.4 |
| 20260506122016 | 44 | 211 | 2.6 | 3.5 | 0.00 | 0.01 | 0.00 | 72 | 1014.5 |
| 20260506121514 | 44 | 194 | 1.7 | 3.5 | 0.00 | 0.01 | 0.00 | 71 | 1014.5 |
| 20260506121015 | 44 | 226 | 2.6 | 3.5 | 0.00 | 0.01 | 0.00 | 73 | 1014.5 |
| 20260506120612 | 44 | 211 | 2.6 | 3.5 | 0.00 | 0.02 | 0.00 | 74 | 1014.5 |
| 20260506120012 | 44 | 230 | 2.6 | 3.5 | 0.00 | 0.02 | 0.00 | 75 | 1014.5 |
| 20260506115512 | 44 | 211 | 1.7 | 3.5 | 0.00 | 0.02 | 0.00 | 74 | 1014.4 |
| 20260506114512 | 44 | 253 | 0.9 | 2.6 | 0.00 | 0.02 | 0.00 | 75 | 1014.4 |
| 20260506114010 | 44 | 250 | 0.9 | 2.6 | 0.00 | 0.02 | 0.00 | 75 | 1014.5 |
| 20260506113512 | 44 | 239 | 0.9 | 2.6 | 0.00 | 0.02 | 0.00 | 76 | 1014.5 |
| 20260506113009 | 44 | 246 | 1.7 | 3.5 | 0.00 | 0.02 | 0.00 | 76 | 1014.6 |
| 20260506112509 | 44 | 229 | 1.7 | 3.5 | 0.00 | 0.02 | 0.00 | 77 | 1014.6 |
| 20260506112008 | 44 | 222 | 1.7 | 3.5 | 0.00 | 0.02 | 0.00 | 78 | 1014.5 |
| 20260506111509 | 43 | 223 | 1.7 | 2.6 | 0.00 | 0.02 | 0.00 | 78 | 1014.5 |
| 20260506111007 | 43 | 222 | 1.7 | 2.6 | 0.00 | 0.02 | 0.00 | 79 | 1014.5 |
| 20260506110515 | 43 | 241 | 0.9 | 2.6 | 0.00 | 0.05 | 0.00 | 79 | 1014.5 |
| 20260506110007 | 43 | 232 | 0.9 | 2.6 | 0.00 | 0.05 | 0.00 | 80 | 1014.6 |
| 20260506105505 | 42 | 261 | 0.9 | 2.6 | 0.00 | 0.05 | 0.00 | 80 | 1014.6 |
| 20260506104505 | 42 | 313 | 0.9 | 3.5 | 0.00 | 0.05 | 0.00 | 81 | 1014.7 |
| 20260506104004 | 41 | 306 | 1.7 | 3.5 | 0.00 | 0.05 | 0.00 | 82 | 1014.6 |
| 20260506103504 | 41 | 311 | 0.9 | 2.6 | 0.00 | 0.05 | 0.00 | 82 | 1014.6 |
| 20260506103006 | 41 | 44 | 0.9 | 3.5 | 0.00 | 0.05 | 0.00 | 82 | 1014.7 |
| 20260506102503 | 41 | 5 | 1.7 | 3.5 | 0.00 | 0.05 | 0.00 | 83 | 1014.7 |
| 20260506102003 | 41 | 349 | 0.9 | 2.6 | 0.00 | 0.05 | 0.00 | 84 | 1014.7 |
| 20260506101503 | 41 | 310 | 0.9 | 2.6 | 0.00 | 0.05 | 0.00 | 85 | 1014.6 |
| 20260506101003 | 41 | 323 | 0.9 | 2.6 | 0.00 | 0.05 | 0.00 | 86 | 1014.5 |
| 20260506100502 | 41 | 328 | 0.9 | 4.3 | 0.00 | 0.05 | 0.00 | 85 | 1014.5 |
| 20260506100001 | 41 | 12 | 1.7 | 4.3 | 0.00 | 0.05 | 0.00 | 85 | 1014.6 |
| 20260506095600 | 41 | 349 | 1.7 | 4.3 | 0.00 | 0.05 | 0.00 | 86 | 1014.6 |
| 20260506095502 | 41 | 5 | 0.9 | 4.3 | 0.00 | 0.05 | 0.00 | 86 | 1014.6 |
| 20260506095201 | 40 | 5 | 1.7 | 4.3 | 0.00 | 0.05 | 0.00 | 86 | 1014.7 |
| 20260506094501 | 40 | 360 | 2.6 | 4.3 | 0.00 | 0.05 | 0.00 | 87 | 1014.7 |
| 20260506094100 | 40 | 360 | 1.7 | 3.5 | 0.00 | 0.05 | 0.00 | 87 | 1014.6 |
| 20260506093600 | 40 | 355 | 1.7 | 3.5 | 0.00 | 0.05 | 0.00 | 87 | 1014.7 |
| 20260506093105 | 39 | 355 | 1.7 | 3.5 | 0.00 | 0.05 | 0.00 | 86 | 1014.7 |
| 20260506092559 | 39 | 5 | 1.7 | 3.5 | 0.00 | 0.05 | 0.00 | 86 | 1014.7 |
| 20260506092100 | 39 | 337 | 1.7 | 3.5 | 0.00 | 0.05 | 0.00 | 86 | 1014.7 |
| 20260506091559 | 39 | 346 | 0.9 | 3.5 | 0.00 | 0.05 | 0.00 | 86 | 1014.8 |
| 20260506091101 | 40 | 13 | 0.9 | 4.3 | 0.00 | 0.05 | 0.00 | 87 | 1014.8 |
| 20260506090604 | 39 | 5 | 1.7 | 4.3 | 0.00 | 0.05 | 0.00 | 87 | 1014.7 |
| 20260506085557 | 38 | 14 | 0.9 | 3.5 | 0.00 | 0.05 | 0.00 | 88 | 1014.8 |
| 20260506085158 | 38 | 324 | 1.7 | 3.5 | 0.00 | 0.05 | 0.00 | 87 | 1014.7 |
| 20260506084557 | 38 | 336 | 0.9 | 2.6 | 0.00 | 0.05 | 0.00 | 87 | 1014.7 |
| 20260506084057 | 37 | 11 | 0.9 | 1.7 | 0.00 | 0.05 | 0.00 | 87 | 1014.8 |
| 20260506083556 | 37 | 36 | 0.9 | 4.3 | 0.00 | 0.05 | 0.00 | 86 | 1014.8 |
| 20260506083057 | 37 | 360 | 0.9 | 5.2 | 0.00 | 0.05 | 0.00 | 85 | 1014.9 |
| 20260506082558 | 38 | 5 | 2.6 | 7.0 | 0.00 | 0.05 | 0.00 | 85 | 1014.8 |
| 20260506082100 | 38 | 322 | 3.5 | 7.0 | 0.00 | 0.05 | 0.00 | 85 | 1014.9 |
| 20260506081556 | 38 | 288 | 3.5 | 8.7 | 0.00 | 0.05 | 0.00 | 84 | 1014.9 |
| 20260506081055 | 38 | 275 | 5.2 | 9.6 | 0.00 | 0.05 | 0.00 | 84 | 1014.9 |
| 20260506080555 | 38 | 229 | 5.2 | 11.3 | 0.00 | 0.06 | 0.00 | 84 | 1014.9 |
| 20260506073051 | 41 | 199 | 3.5 | 7.8 | 0.00 | 0.06 | 0.00 | 78 | 1014.0 |
| 20260506072551 | 40 | 194 | 3.5 | 7.8 | 0.00 | 0.06 | 0.00 | 78 | 1014.0 |
| 20260506072052 | 40 | 205 | 4.3 | 7.0 | 0.00 | 0.06 | 0.00 | 78 | 1014.0 |
| 20260506071605 | 40 | 185 | 3.5 | 7.0 | 0.00 | 0.06 | 0.00 | 79 | 1014.0 |
| 20260506071052 | 40 | 203 | 3.5 | 7.0 | 0.00 | 0.06 | 0.00 | 79 | 1013.9 |
| 20260506070549 | 40 | 199 | 3.5 | 7.0 | 0.00 | 0.06 | 0.00 | 79 | 1014.0 |
| 20260506062043 | 38 | 170 | 1.7 | 6.1 | 0.00 | 0.06 | 0.00 | 81 | 1013.8 |
| 20260506061543 | 38 | 155 | 1.7 | 3.5 | 0.00 | 0.06 | 0.00 | 81 | 1013.9 |
| 20260506061041 | 38 | 166 | 0.9 | 4.3 | 0.00 | 0.06 | 0.00 | 82 | 1013.9 |
| 20260506060540 | 38 | 177 | 1.7 | 4.3 | 0.00 | 0.06 | 0.00 | 82 | 1013.9 |
| 20260506051037 | 37 | 180 | 1.7 | 2.6 | 0.00 | 0.06 | 0.00 | 83 | 1013.7 |
| 20260506050537 | 37 | 148 | 0.9 | 2.6 | 0.00 | 0.06 | 0.00 | 84 | 1013.7 |
| 20260506044536 | 36 | 113 | 0.9 | 1.7 | 0.00 | 0.06 | 0.00 | 84 | 1014.0 |
| 20260506044036 | 35 | 76 | 0.0 | 1.7 | 0.00 | 0.06 | 0.00 | 83 | 1013.9 |
| 20260506043540 | 35 | 76 | 0.0 | 2.6 | 0.00 | 0.06 | 0.00 | 83 | 1013.9 |
| 20260506043036 | 36 | 80 | 0.9 | 2.6 | 0.00 | 0.06 | 0.00 | 82 | 1013.8 |
| 20260506042536 | 36 | 111 | 0.0 | 3.5 | 0.00 | 0.06 | 0.00 | 83 | 1013.7 |
| 20260506042040 | 36 | 171 | 0.9 | 3.5 | 0.00 | 0.06 | 0.00 | 83 | 1013.7 |
| 20260506041546 | 36 | 171 | 1.7 | 4.3 | 0.00 | 0.06 | 0.00 | 84 | 1013.6 |
| 20260506041035 | 36 | 157 | 1.7 | 2.6 | 0.00 | 0.06 | 0.00 | 84 | 1013.6 |
| 20260506040534 | 36 | 153 | 0.9 | 2.6 | 0.00 | 0.06 | 0.00 | 84 | 1013.7 |
| 20260506040034 | 36 | 152 | 0.9 | 2.6 | 0.00 | 0.06 | 0.00 | 84 | 1013.7 |
| 20260506035536 | 36 | 151 | 0.9 | 2.6 | 0.00 | 0.06 | 0.00 | 84 | 1013.6 |
| 20260506035135 | 36 | 175 | 0.9 | 2.6 | 0.00 | 0.06 | 0.00 | 84 | 1013.6 |
| 20260506034534 | 36 | 155 | 0.9 | 2.6 | 0.00 | 0.06 | 0.00 | 85 | 1013.7 |
| 20260506034034 | 36 | 171 | 0.0 | 3.5 | 0.00 | 0.06 | 0.00 | 85 | 1013.7 |
| 20260506033537 | 36 | 155 | 0.9 | 2.6 | 0.00 | 0.06 | 0.00 | 85 | 1013.7 |
| 20260506033034 | 36 | 160 | 0.0 | 2.6 | 0.00 | 0.06 | 0.00 | 86 | 1013.8 |
| 20260506032534 | 36 | 153 | 0.0 | 1.7 | 0.00 | 0.06 | 0.00 | 86 | 1013.8 |
| 20260506032033 | 35 | 153 | 0.9 | 2.6 | 0.00 | 0.06 | 0.00 | 86 | 1013.8 |
| 20260506031534 | 35 | 144 | 0.9 | 2.6 | 0.00 | 0.06 | 0.00 | 86 | 1013.8 |
| 20260506031034 | 35 | 119 | 1.7 | 3.5 | 0.00 | 0.06 | 0.00 | 86 | 1013.7 |
| 20260506030535 | 35 | 98 | 1.7 | 3.5 | 0.00 | 0.06 | 0.00 | 85 | 1013.8 |
| 20260506030034 | 35 | 104 | 1.7 | 3.5 | 0.00 | 0.06 | 0.00 | 86 | 1013.9 |
| 20260506025535 | 35 | 96 | 1.7 | 3.5 | 0.00 | 0.06 | 0.00 | 86 | 1013.9 |
| 20260506025134 | 34 | 96 | 1.7 | 3.5 | 0.00 | 0.06 | 0.00 | 85 | 1013.9 |
| 20260506024537 | 34 | 102 | 1.7 | 3.5 | 0.00 | 0.06 | 0.00 | 85 | 1013.9 |
| 20260506024032 | 35 | 94 | 1.7 | 3.5 | 0.00 | 0.06 | 0.00 | 85 | 1013.9 |
| 20260506023532 | 35 | 94 | 1.7 | 3.5 | 0.00 | 0.06 | 0.00 | 84 | 1013.9 |
| 20260506023032 | 35 | 98 | 1.7 | 3.5 | 0.00 | 0.06 | 0.00 | 84 | 1013.9 |
| 20260506022530 | 35 | 94 | 1.7 | 3.5 | 0.00 | 0.06 | 0.00 | 84 | 1013.9 |
| 20260506022030 | 35 | 98 | 1.7 | 3.5 | 0.00 | 0.06 | 0.00 | 83 | 1014.0 |
| 20260506021530 | 36 | 106 | 1.7 | 3.5 | 0.00 | 0.06 | 0.00 | 83 | 1014.0 |
| 20260506021030 | 36 | 98 | 1.7 | 2.6 | 0.00 | 0.06 | 0.00 | 82 | 1013.9 |
| 20260506020529 | 36 | 136 | 1.7 | 2.6 | 0.00 | 0.06 | 0.00 | 82 | 1013.9 |
| 20260506020030 | 37 | 103 | 0.9 | 2.6 | 0.00 | 0.06 | 0.00 | 82 | 1013.9 |
| 20260506015532 | 37 | 115 | 1.7 | 3.5 | 0.00 | 0.06 | 0.00 | 82 | 1013.9 |
| 20260506015130 | 37 | 136 | 1.7 | 2.6 | 0.00 | 0.06 | 0.00 | 82 | 1014.0 |
| 20260506014542 | 37 | 109 | 0.9 | 2.6 | 0.00 | 0.06 | 0.00 | 82 | 1014.0 |
| 20260506014028 | 37 | 344 | 0.9 | 3.5 | 0.00 | 0.06 | 0.00 | 82 | 1014.2 |
| 20260506013527 | 36 | 325 | 0.9 | 3.5 | 0.00 | 0.06 | 0.00 | 82 | 1014.2 |
| 20260506013029 | 35 | 110 | 0.9 | 2.6 | 0.00 | 0.06 | 0.00 | 81 | 1014.2 |
| 20260506012525 | 35 | 80 | 0.0 | 3.5 | 0.00 | 0.06 | 0.00 | 80 | 1014.1 |
| 20260506012024 | 35 | 86 | 0.9 | 3.5 | 0.00 | 0.06 | 0.00 | 80 | 1014.0 |
| 20260506011526 | 35 | 96 | 1.7 | 3.5 | 0.00 | 0.06 | 0.00 | 80 | 1014.0 |
| 20260506011023 | 35 | 104 | 2.6 | 3.5 | 0.00 | 0.06 | 0.00 | 80 | 1013.9 |
| 20260506010523 | 35 | 90 | 1.7 | 3.5 | 0.00 | 0.06 | 0.00 | 79 | 1013.8 |
| 20260506010027 | 35 | 107 | 1.7 | 3.5 | 0.00 | 0.06 | 0.00 | 78 | 1013.9 |
| 20260506005521 | 35 | 89 | 1.7 | 3.5 | 0.00 | 0.06 | 0.00 | 79 | 1013.9 |
| 20260506005121 | 35 | 98 | 2.6 | 5.2 | 0.00 | 0.06 | 0.00 | 79 | 1013.8 |
| 20260506004534 | 35 | 109 | 2.6 | 5.2 | 0.00 | 0.06 | 0.00 | 79 | 1013.8 |
| 20260506004021 | 35 | 164 | 1.7 | 6.1 | 0.00 | 0.06 | 0.00 | 79 | 1013.8 |
| 20260506003521 | 35 | 108 | 3.5 | 6.1 | 0.00 | 0.06 | 0.00 | 79 | 1013.7 |
| 20260506003020 | 35 | 97 | 3.5 | 6.1 | 0.00 | 0.06 | 0.00 | 80 | 1013.7 |
| 20260506002519 | 35 | 95 | 3.5 | 6.1 | 0.00 | 0.06 | 0.00 | 80 | 1013.7 |
| 20260506002019 | 35 | 93 | 3.5 | 6.1 | 0.00 | 0.06 | 0.00 | 80 | 1013.8 |
| 20260506001518 | 35 | 90 | 3.5 | 6.1 | 0.00 | 0.06 | 0.00 | 81 | 1013.8 |
| 20260506001018 | 35 | 90 | 3.5 | 6.1 | 0.00 | 0.06 | 0.00 | 81 | 1014.0 |
| 20260506000516 | 35 | 109 | 3.5 | 5.2 | 0.00 | 0.06 | 0.06 | 81 | 1014.0 |
| 20260506000019 | 35 | 96 | 2.6 | 5.2 | 0.00 | 0.06 | 0.06 | 81 | 1014.0 |
| 20260505235516 | 35 | 101 | 3.5 | 5.2 | 0.00 | 0.06 | 0.06 | 81 | 1014.0 |
| 20260505235116 | 35 | 117 | 3.5 | 5.2 | 0.00 | 0.06 | 0.06 | 81 | 1014.1 |
| 20260505234518 | 35 | 96 | 3.5 | 5.2 | 0.00 | 0.06 | 0.06 | 81 | 1014.1 |
| 20260505234014 | 35 | 103 | 3.5 | 5.2 | 0.00 | 0.06 | 0.06 | 81 | 1014.0 |
| 20260505233516 | 35 | 107 | 2.6 | 5.2 | 0.00 | 0.06 | 0.06 | 81 | 1014.0 |
| 20260505233013 | 35 | 105 | 3.5 | 5.2 | 0.00 | 0.06 | 0.06 | 82 | 1014.0 |
| 20260505232514 | 35 | 98 | 2.6 | 6.1 | 0.00 | 0.06 | 0.06 | 82 | 1014.0 |
| 20260505232012 | 35 | 98 | 3.5 | 6.1 | 0.00 | 0.06 | 0.06 | 82 | 1014.0 |
| 20260505231612 | 35 | 106 | 2.6 | 6.1 | 0.00 | 0.06 | 0.06 | 82 | 1014.0 |
| 20260505231011 | 35 | 90 | 2.6 | 5.2 | 0.00 | 0.06 | 0.06 | 81 | 1013.9 |
| 20260505230516 | 35 | 96 | 2.6 | 6.1 | 0.00 | 0.06 | 0.06 | 81 | 1013.9 |
| 20260505230015 | 35 | 100 | 3.5 | 6.1 | 0.00 | 0.06 | 0.06 | 81 | 1013.9 |
| 20260505225511 | 35 | 88 | 2.6 | 6.1 | 0.00 | 0.06 | 0.06 | 81 | 1014.0 |
| 20260505225114 | 36 | 80 | 2.6 | 5.2 | 0.00 | 0.06 | 0.06 | 82 | 1014.0 |
| 20260505224514 | 35 | 101 | 2.6 | 5.2 | 0.00 | 0.06 | 0.06 | 82 | 1014.0 |
| 20260505224013 | 35 | 103 | 2.6 | 5.2 | 0.00 | 0.06 | 0.06 | 81 | 1014.0 |
| 20260505223517 | 35 | 109 | 2.6 | 5.2 | 0.00 | 0.06 | 0.06 | 81 | 1014.0 |
| 20260505223012 | 35 | 109 | 1.7 | 3.5 | 0.00 | 0.06 | 0.06 | 81 | 1014.0 |
| 20260505222512 | 36 | 101 | 1.7 | 5.2 | 0.00 | 0.06 | 0.06 | 80 | 1014.0 |
| 20260505222012 | 36 | 113 | 2.6 | 5.2 | 0.00 | 0.06 | 0.06 | 80 | 1014.0 |
| 20260505221511 | 36 | 111 | 2.6 | 6.1 | 0.00 | 0.06 | 0.06 | 80 | 1014.0 |
| 20260505221012 | 36 | 105 | 2.6 | 6.1 | 0.00 | 0.06 | 0.06 | 81 | 1014.0 |
| 20260505220510 | 36 | 94 | 3.5 | 4.3 | 0.00 | 0.06 | 0.06 | 81 | 1013.9 |
| 20260505220023 | 36 | 103 | 3.5 | 5.2 | 0.00 | 0.06 | 0.06 | 81 | 1014.0 |
| 20260505215512 | 36 | 101 | 2.6 | 5.2 | 0.00 | 0.06 | 0.06 | 81 | 1013.9 |
| 20260505215109 | 36 | 113 | 2.6 | 5.2 | 0.00 | 0.06 | 0.06 | 80 | 1013.9 |
| 20260505214513 | 36 | 108 | 1.7 | 5.2 | 0.00 | 0.06 | 0.06 | 80 | 1013.8 |
| 20260505214008 | 36 | 107 | 3.5 | 5.2 | 0.00 | 0.06 | 0.06 | 80 | 1013.7 |
| 20260505213508 | 36 | 105 | 2.6 | 5.2 | 0.00 | 0.06 | 0.06 | 80 | 1013.7 |
| 20260505213009 | 36 | 107 | 3.5 | 5.2 | 0.00 | 0.06 | 0.06 | 80 | 1013.7 |
| 20260505212508 | 36 | 101 | 2.6 | 5.2 | 0.00 | 0.06 | 0.06 | 80 | 1013.7 |
| 20260505212008 | 36 | 109 | 2.6 | 5.2 | 0.00 | 0.06 | 0.06 | 80 | 1013.6 |
| 20260505211507 | 36 | 109 | 3.5 | 5.2 | 0.00 | 0.06 | 0.06 | 80 | 1013.7 |
| 20260505211010 | 36 | 101 | 2.6 | 3.5 | 0.00 | 0.06 | 0.06 | 81 | 1013.7 |
| 20260505210506 | 36 | 112 | 2.6 | 5.2 | 0.00 | 0.06 | 0.06 | 80 | 1013.7 |
| 20260505210008 | 36 | 97 | 1.7 | 5.2 | 0.00 | 0.06 | 0.06 | 80 | 1013.7 |
| 20260505205513 | 36 | 107 | 2.6 | 5.2 | 0.00 | 0.06 | 0.06 | 80 | 1013.6 |
| 20260505205106 | 36 | 109 | 2.6 | 5.2 | 0.00 | 0.06 | 0.06 | 80 | 1013.6 |
| 20260505204514 | 36 | 112 | 2.6 | 5.2 | 0.00 | 0.06 | 0.06 | 79 | 1013.6 |
| 20260505204106 | 36 | 107 | 2.6 | 5.2 | 0.00 | 0.06 | 0.06 | 79 | 1013.6 |
| 20260505203505 | 37 | 112 | 2.6 | 5.2 | 0.00 | 0.06 | 0.06 | 79 | 1013.6 |
| 20260505203005 | 37 | 88 | 2.6 | 3.5 | 0.00 | 0.06 | 0.06 | 79 | 1013.6 |
| 20260505202505 | 37 | 101 | 2.6 | 5.2 | 0.00 | 0.06 | 0.06 | 78 | 1013.6 |
| 20260505202005 | 38 | 95 | 1.7 | 3.5 | 0.00 | 0.06 | 0.06 | 78 | 1013.6 |
| 20260505201505 | 38 | 103 | 1.7 | 3.5 | 0.00 | 0.06 | 0.06 | 78 | 1013.6 |
| 20260505201004 | 38 | 101 | 2.6 | 5.2 | 0.00 | 0.06 | 0.06 | 78 | 1013.6 |
| 20260505200512 | 38 | 102 | 2.6 | 5.2 | 0.00 | 0.06 | 0.06 | 77 | 1013.6 |
| 20260505200008 | 39 | 94 | 1.7 | 5.2 | 0.00 | 0.06 | 0.06 | 77 | 1013.7 |
| 20260505195503 | 39 | 76 | 2.6 | 5.2 | 0.00 | 0.06 | 0.06 | 76 | 1013.7 |
| 20260505195104 | 40 | 103 | 2.6 | 7.0 | 0.00 | 0.06 | 0.06 | 75 | 1013.7 |
| 20260505194505 | 40 | 92 | 2.6 | 7.0 | 0.00 | 0.06 | 0.06 | 75 | 1013.6 |
| 20260505194006 | 40 | 49 | 3.5 | 10.4 | 0.00 | 0.06 | 0.06 | 74 | 1013.7 |
| 20260505193503 | 41 | 41 | 4.3 | 10.4 | 0.00 | 0.06 | 0.06 | 74 | 1013.6 |
| 20260505193009 | 41 | 28 | 0.9 | 2.6 | 0.00 | 0.06 | 0.06 | 71 | 1013.4 |
| 20260505192502 | 41 | 43 | 0.9 | 2.6 | 0.00 | 0.06 | 0.06 | 72 | 1013.4 |
| 20260505192002 | 41 | 71 | 0.9 | 2.6 | 0.00 | 0.06 | 0.06 | 71 | 1013.3 |